Content
SEND FEEDBACK

Daily
Averages
Monthly
Summary
Greenland

THULE, GREENLAND


Home > North America > Greenland
Elevation: 194 feet     Latitude: 76 32N     Longitude: 068 30W

WEATHER
 
SELECT A DAY
Number of Records: 221,145;   Date Range: 6/30/96 - 12/26/14
 
SHARE

PRINT THIS DATA

[ ← Previous Day ]
WEATHER ALMANAC - JANUARY 31, 2013
[ Next Day → ]
[ °C ]   °F
Weather ElementAverageHighLow
Temperature-13.2 °F-7.1 °F (4:58 am)-17.1 °F (9:58 am)
Dewpoint-20.7 °F-14.6 °F (4:58 am)-25.1 °F (9:58 am)
Humidity69.1 %74 % (3:58 am)66 % (7:58 pm)
Barometer29.67 in29.73 in (7:58 am)29.64 in (1:58 am)
Wind Speed12.2 mph16.1 mph (1:58 pm)
Weather ElementAverage
Visibility6.2 mi
Wind DirectionE (91.8 °)

Weather ElementTotal
Precipitation---
Heating Degree Days77.1 (Base 65)
Averaged from 22 records on January 31, 2013
WEATHER CONDITIONS BREAKOUT
WIND DIRECTION BREAKOUT
WEATHER BY HOUR - JANUARY 31, 2013
[ °C ]   °F
Local TimeTemperatureDewpointHumidityBarometerVisibilityWind DirectionWind SpeedGust SpeedPrecipitationEventsConditions
1:58 AM-12.5 °F-19.3 °F72 %29.64 in6.2 miEast (90°)9.2 mphClear
3:58 AM-10.7 °F-17.0 °F74 %29.64 in6.2 miEast (80°)12.7 mphClear
4:58 AM-7.1 °F-14.6 °F70 %29.65 in6.2 miEast (90°)10.4 mphClear
5:58 AM-8.9 °F-16.6 °F69 %29.65 in6.2 miEast (90°)15.0 mphClear
6:58 AM-10.8 °F-18.0 °F70 %29.66 in6.2 miEast (100°)10.4 mphClear
7:58 AM-11.2 °F-18.4 °F70 %29.73 in6.2 miEast (90°)11.5 mphScattered Clouds
8:55 AM-13.0 °F-20.2 °F70 %29.73 in6.2 miEast (90°)11.5 mphClear
8:58 AM-12.6 °F-20.4 °F68 %29.66 in6.2 miEast (90°)11.5 mphClear
9:58 AM-17.1 °F-25.1 °F67 %29.67 in6.2 miEast (90°)13.8 mphClear
10:58 AM-15.2 °F-22.5 °F69 %29.66 in6.2 miEast (80°)11.5 mphClear
11:58 AM-14.4 °F-22.4 °F68 %29.67 in6.2 miEast (90°)11.5 mphClear
12:58 PM-15.0 °F-22.9 °F68 %29.67 in6.2 miEast (90°)11.5 mphClear
1:58 PM-14.6 °F-22.4 °F68 %29.68 in6.2 miEast (90°)16.1 mphClear
2:58 PM-14.4 °F-21.6 °F70 %29.67 in6.2 miEast (100°)13.8 mphClear
3:58 PM-13.7 °F-21.5 °F68 %29.68 in6.2 miEast (90°)12.7 mphClear
5:58 PM-12.5 °F-20.6 °F67 %29.69 in6.2 miEast (100°)11.5 mphClear
6:58 PM-11.6 °F-19.8 °F67 %29.69 in6.2 miEast (100°)12.7 mphClear
7:58 PM-12.5 °F-20.9 °F66 %29.68 in6.2 miEast (100°)12.7 mphClear
8:58 PM-13.5 °F-20.7 °F70 %29.67 in6.2 miEast (90°)12.7 mphClear
9:58 PM-15.9 °F-23.4 °F69 %29.68 in6.2 miEast (90°)10.4 mphClear
10:58 PM-16.6 °F-24.2 °F69 %29.66 in6.2 miEast (90°)16.1 mphClear
11:58 PM-15.9 °F-22.7 °F71 %29.65 in6.2 miEast (100°)9.2 mphClear
Hourly data recorded from BGTL, located miles away from Thule, Greenland







STORIES FROM OUR PARTNERS